Time,TemperatureF,DewpointF,PressureIn,WindDirection,WindDirectionDegrees,WindSpeedMPH,WindSpeedGustMPH,Humidity,HourlyPrecipIn,Conditions,Clouds,dailyrainin,SoftwareType,DateUTC
2013-07-07 00:02:00,58.3,26.1,30.13,West,270,1.1,2.5,29,0.00,,,0.00,WUHU216HW,2013-07-07 07:02:00,
2013-07-07 00:07:00,58.3,26.1,30.13,WSW,248,1.1,1.6,29,0.00,,,0.00,WUHU216HW,2013-07-07 07:07:00,
2013-07-07 00:12:00,58.1,26.9,30.13,WSW,248,0.9,1.6,30,0.00,,,0.00,WUHU216HW,2013-07-07 07:12:00,
2013-07-07 00:17:00,58.0,26.7,30.13,West,270,0.2,1.3,30,0.00,,,0.00,WUHU216HW,2013-07-07 07:17:00,
2013-07-07 00:22:00,58.0,27.5,30.13,SW,225,0.9,1.6,31,0.00,,,0.00,WUHU216HW,2013-07-07 07:22:00,
2013-07-07 00:27:00,58.0,27.5,30.13,West,270,1.3,1.8,31,0.00,,,0.00,WUHU216HW,2013-07-07 07:27:00,
2013-07-07 00:32:00,57.8,28.0,30.13,WSW,248,0.9,1.8,32,0.00,,,0.00,WUHU216HW,2013-07-07 07:32:00,
2013-07-07 00:37:00,57.6,27.8,30.13,West,270,1.1,1.8,32,0.00,,,0.00,WUHU216HW,2013-07-07 07:37:00,
2013-07-07 00:42:00,57.4,27.6,30.13,WSW,248,2.0,2.0,32,0.00,,,0.00,WUHU216HW,2013-07-07 07:42:00,
2013-07-07 00:47:00,57.4,28.4,30.13,West,270,1.1,2.0,33,0.00,,,0.00,WUHU216HW,2013-07-07 07:47:00,
2013-07-07 00:52:00,57.2,28.2,30.13,West,270,1.1,2.0,33,0.00,,,0.00,WUHU216HW,2013-07-07 07:52:00,
2013-07-07 00:57:00,57.2,28.2,30.13,WSW,248,1.8,2.5,33,0.00,,,0.00,WUHU216HW,2013-07-07 07:57:00,
2013-07-07 01:02:00,57.2,28.2,30.13,WSW,248,1.8,2.5,33,0.00,,,0.00,WUHU216HW,2013-07-07 08:02:00,
2013-07-07 01:07:00,57.2,28.9,30.13,WSW,248,1.3,2.5,34,0.00,,,0.00,WUHU216HW,2013-07-07 08:07:00,
2013-07-07 01:12:00,57.2,28.9,30.13,West,270,1.3,2.5,34,0.00,,,0.00,WUHU216HW,2013-07-07 08:12:00,
2013-07-07 01:17:00,57.1,28.7,30.13,West,270,1.1,1.6,34,0.00,,,0.00,WUHU216HW,2013-07-07 08:17:00,
2013-07-07 01:22:00,57.1,30.2,30.13,WSW,248,0.7,1.6,36,0.00,,,0.00,WUHU216HW,2013-07-07 08:22:00,
2013-07-07 01:27:00,56.9,30.0,30.13,West,270,0.7,1.1,36,0.00,,,0.00,WUHU216HW,2013-07-07 08:27:00,
2013-07-07 01:32:00,56.9,30.0,30.13,WNW,293,0.0,1.1,36,0.00,,,0.00,WUHU216HW,2013-07-07 08:32:00,
2013-07-07 01:37:00,56.9,30.0,30.13,WNW,293,0.4,1.3,36,0.00,,,0.00,WUHU216HW,2013-07-07 08:37:00,
2013-07-07 01:42:00,56.9,30.0,30.13,SW,225,1.1,2.2,36,0.00,,,0.00,WUHU216HW,2013-07-07 08:42:00,
2013-07-07 01:47:00,56.9,30.0,30.13,West,270,1.1,2.2,36,0.00,,,0.00,WUHU216HW,2013-07-07 08:47:00,
2013-07-07 01:52:00,56.9,30.0,30.13,WSW,248,1.1,1.8,36,0.00,,,0.00,WUHU216HW,2013-07-07 08:52:00,
2013-07-07 01:57:00,56.9,30.7,30.13,WSW,248,1.1,1.8,37,0.00,,,0.00,WUHU216HW,2013-07-07 08:57:00,
2013-07-07 02:02:00,56.9,30.7,30.13,WSW,248,1.8,1.8,37,0.00,,,0.00,WUHU216HW,2013-07-07 09:02:00,
2013-07-07 02:07:00,56.9,30.7,30.12,WSW,248,1.1,1.8,37,0.00,,,0.00,WUHU216HW,2013-07-07 09:07:00,
2013-07-07 02:12:00,56.9,31.4,30.13,WSW,248,2.0,2.0,38,0.00,,,0.00,WUHU216HW,2013-07-07 09:12:00,
2013-07-07 02:17:00,56.9,31.4,30.12,WSW,248,1.8,2.0,38,0.00,,,0.00,WUHU216HW,2013-07-07 09:17:00,
2013-07-07 02:22:00,56.9,32.1,30.12,WSW,248,1.1,2.0,39,0.00,,,0.00,WUHU216HW,2013-07-07 09:22:00,
2013-07-07 02:27:00,56.9,32.1,30.12,WSW,248,1.6,2.0,39,0.00,,,0.00,WUHU216HW,2013-07-07 09:27:00,
2013-07-07 02:32:00,56.9,32.1,30.12,WSW,248,2.0,2.0,39,0.00,,,0.00,WUHU216HW,2013-07-07 09:32:00,
2013-07-07 02:37:00,56.7,32.0,30.12,WSW,248,1.8,2.0,39,0.00,,,0.00,WUHU216HW,2013-07-07 09:37:00,
2013-07-07 02:42:00,56.7,32.7,30.12,WSW,248,1.1,2.0,40,0.00,,,0.00,WUHU216HW,2013-07-07 09:42:00,
2013-07-07 02:47:00,56.5,32.5,30.11,WSW,248,1.1,2.0,40,0.00,,,0.00,WUHU216HW,2013-07-07 09:47:00,
2013-07-07 02:52:00,56.5,32.5,30.12,WSW,248,1.6,1.8,40,0.00,,,0.00,WUHU216HW,2013-07-07 09:52:00,
2013-07-07 02:57:00,56.5,32.5,30.11,WSW,248,1.3,1.8,40,0.00,,,0.00,WUHU216HW,2013-07-07 09:57:00,
2013-07-07 03:02:00,56.5,32.5,30.11,WSW,248,2.0,2.5,40,0.00,,,0.00,WUHU216HW,2013-07-07 10:02:00,
2013-07-07 03:07:00,56.5,32.5,30.11,WSW,248,1.8,2.5,40,0.00,,,0.00,WUHU216HW,2013-07-07 10:07:00,
2013-07-07 03:12:00,56.3,32.3,30.11,WSW,248,2.7,2.7,40,0.00,,,0.00,WUHU216HW,2013-07-07 10:12:00,
2013-07-07 03:17:00,56.3,32.3,30.11,WSW,248,1.3,2.7,40,0.00,,,0.00,WUHU216HW,2013-07-07 10:17:00,
2013-07-07 03:22:00,56.2,32.7,30.11,WSW,248,1.8,2.7,41,0.00,,,0.00,WUHU216HW,2013-07-07 10:22:00,
2013-07-07 03:27:00,56.2,32.7,30.11,WSW,248,1.8,2.0,41,0.00,,,0.00,WUHU216HW,2013-07-07 10:27:00,
2013-07-07 03:32:00,56.2,32.7,30.11,West,270,1.1,2.9,41,0.00,,,0.00,WUHU216HW,2013-07-07 10:32:00,
2013-07-07 03:37:00,56.2,32.7,30.11,WSW,248,2.5,2.9,41,0.00,,,0.00,WUHU216HW,2013-07-07 10:37:00,
2013-07-07 03:42:00,56.2,32.7,30.11,West,270,1.1,2.7,41,0.00,,,0.00,WUHU216HW,2013-07-07 10:42:00,
2013-07-07 03:47:00,56.0,32.6,30.11,WSW,248,2.7,3.1,41,0.00,,,0.00,WUHU216HW,2013-07-07 10:47:00,
2013-07-07 03:52:00,56.0,32.6,30.11,WSW,248,1.8,3.1,41,0.00,,,0.00,WUHU216HW,2013-07-07 10:52:00,
2013-07-07 03:57:00,55.8,32.4,30.11,WSW,248,1.3,2.7,41,0.00,,,0.00,WUHU216HW,2013-07-07 10:57:00,
2013-07-07 04:02:00,55.8,32.4,30.11,WSW,248,1.1,2.5,41,0.00,,,0.00,WUHU216HW,2013-07-07 11:02:00,
2013-07-07 04:07:00,55.8,32.4,30.11,WSW,248,2.2,2.2,41,0.00,,,0.00,WUHU216HW,2013-07-07 11:07:00,
2013-07-07 04:12:00,55.8,32.9,30.11,WSW,248,1.6,2.5,42,0.00,,,0.00,WUHU216HW,2013-07-07 11:12:00,
2013-07-07 04:17:00,55.8,32.9,30.11,WSW,248,1.3,2.5,42,0.00,,,0.00,WUHU216HW,2013-07-07 11:17:00,
2013-07-07 04:22:00,55.8,32.9,30.11,WSW,248,0.0,1.8,42,0.00,,,0.00,WUHU216HW,2013-07-07 11:22:00,
2013-07-07 04:27:00,55.6,32.8,30.11,WSW,248,1.3,1.3,42,0.00,,,0.00,WUHU216HW,2013-07-07 11:27:00,
2013-07-07 04:32:00,55.6,33.3,30.11,WSW,248,1.6,1.8,43,0.00,,,0.00,WUHU216HW,2013-07-07 11:32:00,
2013-07-07 04:37:00,55.6,33.3,30.11,SW,225,1.8,2.5,43,0.00,,,0.00,WUHU216HW,2013-07-07 11:37:00,
2013-07-07 04:42:00,55.6,33.3,30.11,SW,225,2.5,2.5,43,0.00,,,0.00,WUHU216HW,2013-07-07 11:42:00,
2013-07-07 04:47:00,55.6,33.3,30.11,WSW,248,2.5,2.5,43,0.00,,,0.00,WUHU216HW,2013-07-07 11:47:00,
2013-07-07 04:52:00,55.4,33.8,30.11,WSW,248,1.8,2.5,44,0.00,,,0.00,WUHU216HW,2013-07-07 11:52:00,
2013-07-07 04:57:00,55.4,33.8,30.11,WSW,248,1.8,2.5,44,0.00,,,0.00,WUHU216HW,2013-07-07 11:57:00,
2013-07-07 05:02:00,55.3,33.6,30.11,WSW,248,1.6,2.5,44,0.00,,,0.00,WUHU216HW,2013-07-07 12:02:00,
2013-07-07 05:07:00,55.3,33.6,30.11,WSW,248,1.6,2.2,44,0.00,,,0.00,WUHU216HW,2013-07-07 12:07:00,
2013-07-07 05:12:00,55.1,33.9,30.11,WSW,248,1.3,2.2,45,0.00,,,0.00,WUHU216HW,2013-07-07 12:12:00,
2013-07-07 05:17:00,55.1,33.9,30.11,WSW,248,1.6,2.7,45,0.00,,,0.00,WUHU216HW,2013-07-07 12:17:00,
2013-07-07 05:22:00,55.1,33.9,30.11,WSW,248,1.3,2.7,45,0.00,,,0.00,WUHU216HW,2013-07-07 12:22:00,
2013-07-07 05:27:00,55.1,33.9,30.11,WSW,248,1.3,2.2,45,0.00,,,0.00,WUHU216HW,2013-07-07 12:27:00,
2013-07-07 05:32:00,55.1,34.6,30.12,WSW,248,1.1,1.8,46,0.00,,,0.00,WUHU216HW,2013-07-07 12:32:00,
2013-07-07 05:37:00,55.1,34.6,30.12,WSW,248,1.3,2.0,46,0.00,,,0.00,WUHU216HW,2013-07-07 12:37:00,
2013-07-07 05:42:00,55.1,35.1,30.12,WSW,248,1.6,2.0,47,0.00,,,0.00,WUHU216HW,2013-07-07 12:42:00,
2013-07-07 05:47:00,55.1,35.1,30.12,WSW,248,1.8,2.5,47,0.00,,,0.00,WUHU216HW,2013-07-07 12:47:00,
2013-07-07 05:52:00,55.1,35.1,30.12,WSW,248,1.1,2.5,47,0.00,,,0.00,WUHU216HW,2013-07-07 12:52:00,
2013-07-07 05:57:00,55.1,35.6,30.12,WSW,248,1.1,2.0,48,0.00,,,0.00,WUHU216HW,2013-07-07 12:57:00,
2013-07-07 06:02:00,55.1,35.6,30.12,WSW,248,1.1,1.8,48,0.00,,,0.00,WUHU216HW,2013-07-07 13:02:00,
2013-07-07 06:07:00,55.1,35.6,30.13,WSW,248,0.9,1.3,48,0.00,,,0.00,WUHU216HW,2013-07-07 13:07:00,
2013-07-07 06:12:00,55.1,36.2,30.13,WSW,248,1.1,1.8,49,0.00,,,0.00,WUHU216HW,2013-07-07 13:12:00,
2013-07-07 06:17:00,55.3,36.4,30.13,WSW,248,1.1,1.8,49,0.00,,,0.00,WUHU216HW,2013-07-07 13:17:00,
2013-07-07 06:22:00,55.4,36.6,30.13,WSW,248,1.3,1.8,49,0.00,,,0.00,WUHU216HW,2013-07-07 13:22:00,
2013-07-07 06:27:00,55.6,37.3,30.13,WSW,248,1.3,1.8,50,0.00,,,0.00,WUHU216HW,2013-07-07 13:27:00,
2013-07-07 06:32:00,55.8,37.4,30.13,WSW,248,1.1,1.8,50,0.00,,,0.00,WUHU216HW,2013-07-07 13:32:00,
2013-07-07 06:37:00,56.3,38.0,30.13,WSW,248,1.3,1.6,50,0.00,,,0.00,WUHU216HW,2013-07-07 13:37:00,
2013-07-07 06:42:00,57.1,38.7,30.13,WSW,248,0.9,1.6,50,0.00,,,0.00,WUHU216HW,2013-07-07 13:42:00,
2013-07-07 06:47:00,57.8,39.3,30.13,SW,225,1.8,1.8,50,0.00,,,0.00,WUHU216HW,2013-07-07 13:47:00,
2013-07-07 06:52:00,58.7,40.1,30.13,SW,225,0.7,1.8,50,0.00,,,0.00,WUHU216HW,2013-07-07 13:52:00,
2013-07-07 06:57:00,59.9,40.8,30.13,SW,225,0.0,1.8,49,0.00,,,0.00,WUHU216HW,2013-07-07 13:57:00,
2013-07-07 07:02:00,61.0,41.1,30.14,SW,225,0.0,0.7,48,0.00,,,0.00,WUHU216HW,2013-07-07 14:02:00,
2013-07-07 07:07:00,62.1,41.5,30.14,SW,225,0.7,0.7,47,0.00,,,0.00,WUHU216HW,2013-07-07 14:07:00,
2013-07-07 07:12:00,63.0,41.8,30.14,SW,225,0.0,0.7,46,0.00,,,0.00,WUHU216HW,2013-07-07 14:12:00,
2013-07-07 07:17:00,63.9,41.4,30.14,NW,315,0.0,0.7,44,0.00,,,0.00,WUHU216HW,2013-07-07 14:17:00,
2013-07-07 07:22:00,64.8,41.7,30.14,North,0,0.4,0.7,43,0.00,,,0.00,WUHU216HW,2013-07-07 14:22:00,
2013-07-07 07:27:00,65.3,41.0,30.14,North,0,0.0,0.7,41,0.00,,,0.00,WUHU216HW,2013-07-07 14:27:00,
2013-07-07 07:32:00,65.9,40.9,30.14,East,90,0.0,0.7,40,0.00,,,0.00,WUHU216HW,2013-07-07 14:32:00,
2013-07-07 07:37:00,66.2,40.5,30.14,East,90,0.4,0.9,39,0.00,,,0.00,WUHU216HW,2013-07-07 14:37:00,
2013-07-07 07:42:00,66.8,41.0,30.14,East,90,1.1,1.3,39,0.00,,,0.00,WUHU216HW,2013-07-07 14:42:00,
2013-07-07 07:47:00,67.3,41.5,30.14,East,90,0.7,1.3,39,0.00,,,0.00,WUHU216HW,2013-07-07 14:47:00,
2013-07-07 07:52:00,67.9,41.9,30.15,NNE,23,0.4,2.7,39,0.00,,,0.00,WUHU216HW,2013-07-07 14:52:00,
2013-07-07 07:57:00,68.6,41.9,30.15,ENE,68,2.5,2.7,38,0.00,,,0.00,WUHU216HW,2013-07-07 14:57:00,
2013-07-07 08:02:00,69.3,40.3,30.15,North,0,0.9,2.5,35,0.00,,,0.00,WUHU216HW,2013-07-07 15:02:00,
2013-07-07 08:07:00,70.2,40.3,30.15,ENE,68,0.0,2.5,34,0.00,,,0.00,WUHU216HW,2013-07-07 15:07:00,
2013-07-07 08:12:00,70.9,39.5,30.15,NNE,23,2.2,2.5,32,0.00,,,0.00,WUHU216HW,2013-07-07 15:12:00,
2013-07-07 08:17:00,71.6,40.1,30.15,NE,45,1.3,2.7,32,0.00,,,0.00,WUHU216HW,2013-07-07 15:17:00,
2013-07-07 08:22:00,72.4,40.1,30.15,East,90,1.1,4.5,31,0.00,,,0.00,WUHU216HW,2013-07-07 15:22:00,
2013-07-07 08:27:00,72.9,40.5,30.15,NNW,338,1.8,4.5,31,0.00,,,0.00,WUHU216HW,2013-07-07 15:27:00,
2013-07-07 08:32:00,73.4,39.2,30.15,NNE,23,3.8,4.5,29,0.00,,,0.00,WUHU216HW,2013-07-07 15:32:00,
2013-07-07 08:37:00,74.0,40.6,30.15,WNW,293,1.3,5.1,30,0.00,,,0.00,WUHU216HW,2013-07-07 15:37:00,
2013-07-07 08:42:00,74.5,41.1,30.15,SW,225,2.5,5.1,30,0.00,,,0.00,WUHU216HW,2013-07-07 15:42:00,
2013-07-07 08:47:00,75.1,41.6,30.15,West,270,2.7,3.8,30,0.00,,,0.00,WUHU216HW,2013-07-07 15:47:00,
2013-07-07 08:52:00,75.4,42.0,30.15,ESE,113,1.8,3.4,30,0.00,,,0.00,WUHU216HW,2013-07-07 15:52:00,
2013-07-07 08:57:00,76.0,41.4,30.15,ENE,68,1.6,3.4,29,0.00,,,0.00,WUHU216HW,2013-07-07 15:57:00,
2013-07-07 09:02:00,76.3,41.7,30.15,ENE,68,3.1,3.1,29,0.00,,,0.00,WUHU216HW,2013-07-07 16:02:00,
2013-07-07 09:07:00,76.3,40.7,30.15,ESE,113,1.1,3.1,28,0.00,,,0.00,WUHU216HW,2013-07-07 16:07:00,
2013-07-07 09:12:00,76.1,40.5,30.15,SW,225,2.5,5.1,28,0.00,,,0.00,WUHU216HW,2013-07-07 16:12:00,
2013-07-07 09:17:00,76.0,40.3,30.15,WSW,248,1.3,5.1,28,0.00,,,0.00,WUHU216HW,2013-07-07 16:17:00,
2013-07-07 09:22:00,75.8,41.2,30.15,ESE,113,0.9,3.4,29,0.00,,,0.00,WUHU216HW,2013-07-07 16:22:00,
2013-07-07 09:27:00,75.6,41.0,30.15,WSW,248,0.4,5.4,29,0.00,,,0.00,WUHU216HW,2013-07-07 16:27:00,
2013-07-07 09:32:00,75.4,40.9,30.16,NW,315,0.4,5.4,29,0.00,,,0.00,WUHU216HW,2013-07-07 16:32:00,
2013-07-07 09:37:00,75.1,40.6,30.15,NW,315,0.2,2.7,29,0.00,,,0.00,WUHU216HW,2013-07-07 16:37:00,
2013-07-07 09:42:00,74.9,40.4,30.16,North,0,2.0,2.9,29,0.00,,,0.00,WUHU216HW,2013-07-07 16:42:00,
2013-07-07 09:47:00,74.7,40.2,30.16,SSE,158,1.1,2.9,29,0.00,,,0.00,WUHU216HW,2013-07-07 16:47:00,
2013-07-07 09:52:00,74.5,40.1,30.16,North,0,0.0,3.1,29,0.00,,,0.00,WUHU216HW,2013-07-07 16:52:00,
2013-07-07 09:57:00,74.5,40.1,30.16,North,0,1.1,3.6,29,0.00,,,0.00,WUHU216HW,2013-07-07 16:57:00,
2013-07-07 10:02:00,74.5,40.1,30.16,NE,45,1.3,3.6,29,0.00,,,0.00,WUHU216HW,2013-07-07 17:02:00,
2013-07-07 10:07:00,74.7,37.2,30.16,NNE,23,1.1,3.4,26,0.00,,,0.00,WUHU216HW,2013-07-07 17:07:00,
2013-07-07 10:12:00,75.2,37.6,30.16,NE,45,1.3,3.6,26,0.00,,,0.00,WUHU216HW,2013-07-07 17:12:00,
2013-07-07 10:17:00,76.0,38.3,30.16,North,0,2.7,5.6,26,0.00,,,0.00,WUHU216HW,2013-07-07 17:17:00,
2013-07-07 10:22:00,76.5,38.7,30.16,North,0,1.8,5.6,26,0.00,,,0.00,WUHU216HW,2013-07-07 17:22:00,
2013-07-07 10:27:00,77.0,39.3,30.16,NNE,23,1.6,6.0,26,0.00,,,0.00,WUHU216HW,2013-07-07 17:27:00,
2013-07-07 10:32:00,76.9,38.0,30.16,North,0,4.0,6.0,25,0.00,,,0.00,WUHU216HW,2013-07-07 17:32:00,
2013-07-07 10:37:00,76.7,37.9,30.16,NW,315,0.9,5.4,25,0.00,,,0.00,WUHU216HW,2013-07-07 17:37:00,
2013-07-07 10:42:00,76.3,37.5,30.16,North,0,0.7,5.4,25,0.00,,,0.00,WUHU216HW,2013-07-07 17:42:00,
2013-07-07 10:47:00,76.3,37.5,30.16,North,0,1.6,3.4,25,0.00,,,0.00,WUHU216HW,2013-07-07 17:47:00,
2013-07-07 10:52:00,76.3,37.5,30.16,North,0,1.3,6.0,25,0.00,,,0.00,WUHU216HW,2013-07-07 17:52:00,
2013-07-07 10:57:00,76.5,37.7,30.16,NNE,23,1.8,6.0,25,0.00,,,0.00,WUHU216HW,2013-07-07 17:57:00,
2013-07-07 11:02:00,76.9,37.0,30.16,NE,45,2.2,6.9,24,0.00,,,0.00,WUHU216HW,2013-07-07 18:02:00,
2013-07-07 11:07:00,77.2,38.4,30.16,North,0,3.4,6.9,25,0.00,,,0.00,WUHU216HW,2013-07-07 18:07:00,
2013-07-07 11:12:00,77.6,37.5,30.16,WSW,248,4.9,6.5,24,0.00,,,0.00,WUHU216HW,2013-07-07 18:12:00,
2013-07-07 11:17:00,78.1,36.9,30.16,NW,315,3.4,6.5,23,0.00,,,0.00,WUHU216HW,2013-07-07 18:17:00,
2013-07-07 11:22:00,78.1,36.9,30.16,ENE,68,4.0,6.5,23,0.00,,,0.00,WUHU216HW,2013-07-07 18:22:00,
2013-07-07 11:27:00,77.9,37.8,30.16,NE,45,2.5,12.1,24,0.00,,,0.00,WUHU216HW,2013-07-07 18:27:00,
2013-07-07 11:32:00,77.6,37.5,30.16,NE,45,2.5,12.1,24,0.00,,,0.00,WUHU216HW,2013-07-07 18:32:00,
2013-07-07 11:37:00,77.8,37.7,30.16,NNE,23,4.0,6.3,24,0.00,,,0.00,WUHU216HW,2013-07-07 18:37:00,
2013-07-07 11:42:00,77.9,37.8,30.17,North,0,3.6,8.3,24,0.00,,,0.00,WUHU216HW,2013-07-07 18:42:00,
2013-07-07 11:47:00,77.9,37.8,30.16,NE,45,3.4,8.3,24,0.00,,,0.00,WUHU216HW,2013-07-07 18:47:00,
2013-07-07 11:52:00,77.9,36.8,30.17,NE,45,0.9,6.5,23,0.00,,,0.00,WUHU216HW,2013-07-07 18:52:00,
2013-07-07 11:57:00,77.9,36.8,30.17,NNE,23,4.3,6.5,23,0.00,,,0.00,WUHU216HW,2013-07-07 18:57:00,
2013-07-07 12:02:00,77.9,36.8,30.16,ENE,68,1.8,4.7,23,0.00,,,0.00,WUHU216HW,2013-07-07 19:02:00,
2013-07-07 12:07:00,78.1,34.8,30.17,North,0,2.7,4.0,21,0.00,,,0.00,WUHU216HW,2013-07-07 19:07:00,
2013-07-07 12:12:00,78.1,36.9,30.17,ESE,113,4.3,4.7,23,0.00,,,0.00,WUHU216HW,2013-07-07 19:12:00,
2013-07-07 12:17:00,77.8,36.6,30.17,SSE,158,1.3,4.7,23,0.00,,,0.00,WUHU216HW,2013-07-07 19:17:00,
2013-07-07 12:22:00,78.1,36.9,30.17,North,0,4.5,5.4,23,0.00,,,0.00,WUHU216HW,2013-07-07 19:22:00,
2013-07-07 12:27:00,78.7,32.6,30.17,NNE,23,3.6,5.4,19,0.00,,,0.00,WUHU216HW,2013-07-07 19:27:00,
2013-07-07 12:32:00,79.2,33.0,30.17,ESE,113,3.4,8.3,19,0.00,,,0.00,WUHU216HW,2013-07-07 19:32:00,
2013-07-07 12:37:00,79.9,32.0,30.17,NW,315,1.6,8.3,18,0.00,,,0.00,WUHU216HW,2013-07-07 19:37:00,
2013-07-07 12:42:00,79.9,32.0,30.17,East,90,2.7,7.6,18,0.00,,,0.00,WUHU216HW,2013-07-07 19:42:00,
2013-07-07 12:47:00,79.6,33.4,30.17,NE,45,1.1,5.4,19,0.00,,,0.00,WUHU216HW,2013-07-07 19:47:00,
2013-07-07 12:52:00,79.2,33.0,30.17,ENE,68,3.4,4.5,19,0.00,,,0.00,WUHU216HW,2013-07-07 19:52:00,
2013-07-07 12:57:00,79.2,35.7,30.16,SE,135,1.3,3.6,21,0.00,,,0.00,WUHU216HW,2013-07-07 19:57:00,
2013-07-07 13:02:00,79.4,33.2,30.17,ENE,68,0.9,8.3,19,0.00,,,0.00,WUHU216HW,2013-07-07 20:02:00,
2013-07-07 13:07:00,79.9,33.7,30.16,East,90,4.7,8.3,19,0.00,,,0.00,WUHU216HW,2013-07-07 20:07:00,
2013-07-07 13:12:00,80.5,34.1,30.16,NNE,23,3.8,7.6,19,0.00,,,0.00,WUHU216HW,2013-07-07 20:12:00,
2013-07-07 13:17:00,81.0,36.3,30.16,NNE,23,7.6,7.6,20,0.00,,,0.00,WUHU216HW,2013-07-07 20:17:00,
2013-07-07 13:22:00,81.0,34.6,30.16,NE,45,2.2,7.6,19,0.00,,,0.00,WUHU216HW,2013-07-07 20:22:00,
2013-07-07 13:27:00,81.2,37.4,30.16,NE,45,1.8,7.6,21,0.00,,,0.00,WUHU216HW,2013-07-07 20:27:00,
2013-07-07 13:32:00,81.2,37.4,30.16,NNE,23,2.0,7.4,21,0.00,,,0.00,WUHU216HW,2013-07-07 20:32:00,
2013-07-07 13:37:00,81.0,37.4,30.16,NW,315,3.1,9.8,21,0.00,,,0.00,WUHU216HW,2013-07-07 20:37:00,
2013-07-07 13:42:00,81.2,37.4,30.16,North,0,3.4,9.8,21,0.00,,,0.00,WUHU216HW,2013-07-07 20:42:00,
2013-07-07 13:47:00,81.2,37.4,30.16,North,0,2.5,6.3,21,0.00,,,0.00,WUHU216HW,2013-07-07 20:47:00,
2013-07-07 13:52:00,81.5,37.8,30.16,West,270,2.2,6.9,21,0.00,,,0.00,WUHU216HW,2013-07-07 20:52:00,
2013-07-07 13:57:00,81.7,37.9,30.16,NE,45,0.9,6.9,21,0.00,,,0.00,WUHU216HW,2013-07-07 20:57:00,
2013-07-07 14:02:00,81.9,38.1,30.16,West,270,1.8,5.8,21,0.00,,,0.00,WUHU216HW,2013-07-07 21:02:00,
2013-07-07 14:07:00,82.4,38.5,30.16,West,270,2.7,5.8,21,0.00,,,0.00,WUHU216HW,2013-07-07 21:07:00,
2013-07-07 14:12:00,83.0,38.9,30.16,NW,315,1.8,5.8,21,0.00,,,0.00,WUHU216HW,2013-07-07 21:12:00,
2013-07-07 14:17:00,83.2,38.0,30.16,North,0,4.7,6.9,20,0.00,,,0.00,WUHU216HW,2013-07-07 21:17:00,
2013-07-07 14:22:00,83.5,39.3,30.16,NE,45,4.7,6.9,21,0.00,,,0.00,WUHU216HW,2013-07-07 21:22:00,
2013-07-07 14:27:00,83.9,36.9,30.16,WNW,293,4.0,7.6,19,0.00,,,0.00,WUHU216HW,2013-07-07 21:27:00,
2013-07-07 14:32:00,83.9,36.9,30.16,WNW,293,3.1,7.6,19,0.00,,,0.00,WUHU216HW,2013-07-07 21:32:00,
2013-07-07 14:37:00,83.9,38.6,30.16,North,0,4.0,8.5,20,0.00,,,0.00,WUHU216HW,2013-07-07 21:37:00,
2013-07-07 14:42:00,84.2,37.2,30.16,NW,315,2.5,8.5,19,0.00,,,0.00,WUHU216HW,2013-07-07 21:42:00,
2013-07-07 14:47:00,84.8,37.6,30.15,WNW,293,3.4,7.8,19,0.00,,,0.00,WUHU216HW,2013-07-07 21:47:00,
2013-07-07 14:52:00,85.0,37.7,30.16,NNW,338,6.0,6.3,19,0.00,,,0.00,WUHU216HW,2013-07-07 21:52:00,
2013-07-07 14:57:00,85.3,38.1,30.16,West,270,2.0,6.0,19,0.00,,,0.00,WUHU216HW,2013-07-07 21:57:00,
2013-07-07 15:02:00,85.3,38.1,30.15,North,0,2.5,7.2,19,0.00,,,0.00,WUHU216HW,2013-07-07 22:02:00,
2013-07-07 15:07:00,85.3,38.1,30.15,ENE,68,4.0,8.7,19,0.00,,,0.00,WUHU216HW,2013-07-07 22:07:00,
2013-07-07 15:12:00,85.1,37.9,30.15,WNW,293,5.6,8.7,19,0.00,,,0.00,WUHU216HW,2013-07-07 22:12:00,
2013-07-07 15:17:00,85.1,37.9,30.15,West,270,4.7,6.9,19,0.00,,,0.00,WUHU216HW,2013-07-07 22:17:00,
2013-07-07 15:22:00,85.0,37.7,30.15,West,270,4.5,5.8,19,0.00,,,0.00,WUHU216HW,2013-07-07 22:22:00,
2013-07-07 15:27:00,85.1,37.9,30.15,WNW,293,3.4,7.6,19,0.00,,,0.00,WUHU216HW,2013-07-07 22:27:00,
2013-07-07 15:32:00,85.3,36.4,30.15,SW,225,5.4,7.6,18,0.00,,,0.00,WUHU216HW,2013-07-07 22:32:00,
2013-07-07 15:37:00,85.3,36.4,30.15,NW,315,2.9,7.6,18,0.00,,,0.00,WUHU216HW,2013-07-07 22:37:00,
2013-07-07 15:42:00,85.1,36.2,30.15,WNW,293,3.4,6.7,18,0.00,,,0.00,WUHU216HW,2013-07-07 22:42:00,
2013-07-07 15:47:00,85.0,34.3,30.15,WNW,293,5.8,6.9,17,0.00,,,0.00,WUHU216HW,2013-07-07 22:47:00,
2013-07-07 15:52:00,85.0,34.3,30.15,NW,315,2.7,7.2,17,0.00,,,0.00,WUHU216HW,2013-07-07 22:52:00,
2013-07-07 15:57:00,85.0,36.0,30.15,WNW,293,3.4,7.2,18,0.00,,,0.00,WUHU216HW,2013-07-07 22:57:00,
2013-07-07 16:02:00,85.0,36.0,30.15,West,270,3.1,6.3,18,0.00,,,0.00,WUHU216HW,2013-07-07 23:02:00,
2013-07-07 16:07:00,85.1,34.5,30.15,West,270,6.0,8.3,17,0.00,,,0.00,WUHU216HW,2013-07-07 23:07:00,
2013-07-07 16:12:00,85.1,36.2,30.15,NW,315,2.5,8.5,18,0.00,,,0.00,WUHU216HW,2013-07-07 23:12:00,
2013-07-07 16:17:00,85.1,36.2,30.15,SW,225,3.6,8.5,18,0.00,,,0.00,WUHU216HW,2013-07-07 23:17:00,
2013-07-07 16:22:00,85.0,36.0,30.15,WNW,293,6.5,8.5,18,0.00,,,0.00,WUHU216HW,2013-07-07 23:22:00,
2013-07-07 16:27:00,85.0,36.0,30.15,West,270,2.7,8.7,18,0.00,,,0.00,WUHU216HW,2013-07-07 23:27:00,
2013-07-07 16:32:00,84.8,34.2,30.15,NNW,338,6.3,8.9,17,0.00,,,0.00,WUHU216HW,2013-07-07 23:32:00,
2013-07-07 16:37:00,84.8,35.9,30.15,SE,135,2.9,8.9,18,0.00,,,0.00,WUHU216HW,2013-07-07 23:37:00,
2013-07-07 16:42:00,84.6,35.7,30.15,NNW,338,2.9,6.3,18,0.00,,,0.00,WUHU216HW,2013-07-07 23:42:00,
2013-07-07 16:47:00,84.2,35.5,30.15,WNW,293,1.6,8.5,18,0.00,,,0.00,WUHU216HW,2013-07-07 23:47:00,
2013-07-07 16:52:00,83.9,35.2,30.15,WNW,293,3.8,8.5,18,0.00,,,0.00,WUHU216HW,2013-07-07 23:52:00,
2013-07-07 16:57:00,83.9,35.2,30.15,SW,225,2.9,6.3,18,0.00,,,0.00,WUHU216HW,2013-07-07 23:57:00,
2013-07-07 17:02:00,83.5,34.9,30.15,WNW,293,4.7,6.9,18,0.00,,,0.00,WUHU216HW,2013-07-08 00:02:00,
2013-07-07 17:07:00,83.2,34.7,30.15,WSW,248,5.4,6.9,18,0.00,,,0.00,WUHU216HW,2013-07-08 00:07:00,
2013-07-07 17:12:00,82.8,34.4,30.15,NW,315,4.0,6.5,18,0.00,,,0.00,WUHU216HW,2013-07-08 00:12:00,
2013-07-07 17:17:00,82.6,34.2,30.15,WNW,293,2.0,7.2,18,0.00,,,0.00,WUHU216HW,2013-07-08 00:17:00,
2013-07-07 17:22:00,82.4,34.0,30.15,SW,225,8.3,8.5,18,0.00,,,0.00,WUHU216HW,2013-07-08 00:22:00,
2013-07-07 17:27:00,82.1,35.5,30.15,North,0,5.4,8.5,19,0.00,,,0.00,WUHU216HW,2013-07-08 00:27:00,
2013-07-07 17:32:00,81.7,35.2,30.15,WNW,293,4.5,9.8,19,0.00,,,0.00,WUHU216HW,2013-07-08 00:32:00,
2013-07-07 17:37:00,81.4,34.9,30.14,SW,225,7.4,9.8,19,0.00,,,0.00,WUHU216HW,2013-07-08 00:37:00,
2013-07-07 17:42:00,81.2,34.7,30.14,WNW,293,6.3,7.6,19,0.00,,,0.00,WUHU216HW,2013-07-08 00:42:00,
2013-07-07 17:47:00,81.0,34.6,30.15,WSW,248,2.7,7.6,19,0.00,,,0.00,WUHU216HW,2013-07-08 00:47:00,
2013-07-07 17:52:00,80.8,34.5,30.15,WNW,293,4.0,7.6,19,0.00,,,0.00,WUHU216HW,2013-07-08 00:52:00,
2013-07-07 17:57:00,80.6,34.3,30.15,WNW,293,4.7,7.2,19,0.00,,,0.00,WUHU216HW,2013-07-08 00:57:00,
2013-07-07 18:02:00,80.6,34.3,30.15,NW,315,4.9,7.8,19,0.00,,,0.00,WUHU216HW,2013-07-08 01:02:00,
2013-07-07 18:07:00,80.5,34.1,30.15,WNW,293,2.7,7.8,19,0.00,,,0.00,WUHU216HW,2013-07-08 01:07:00,
2013-07-07 18:12:00,80.3,34.0,30.15,NW,315,2.2,7.8,19,0.00,,,0.00,WUHU216HW,2013-07-08 01:12:00,
2013-07-07 18:17:00,79.9,33.7,30.15,North,0,1.8,8.7,19,0.00,,,0.00,WUHU216HW,2013-07-08 01:17:00,
2013-07-07 18:22:00,79.4,34.8,30.15,NW,315,5.1,8.7,20,0.00,,,0.00,WUHU216HW,2013-07-08 01:22:00,
2013-07-07 18:27:00,79.0,35.6,30.15,WSW,248,3.4,6.3,21,0.00,,,0.00,WUHU216HW,2013-07-08 01:27:00,
2013-07-07 18:32:00,78.7,35.3,30.15,WSW,248,5.4,7.4,21,0.00,,,0.00,WUHU216HW,2013-07-08 01:32:00,
2013-07-07 18:37:00,78.5,35.1,30.15,WNW,293,2.0,7.4,21,0.00,,,0.00,WUHU216HW,2013-07-08 01:37:00,
2013-07-07 18:42:00,78.5,35.1,30.15,WNW,293,3.8,5.4,21,0.00,,,0.00,WUHU216HW,2013-07-08 01:42:00,
2013-07-07 18:47:00,78.1,34.8,30.15,WSW,248,2.9,6.9,21,0.00,,,0.00,WUHU216HW,2013-07-08 01:47:00,
2013-07-07 18:52:00,77.8,34.6,30.15,WNW,293,4.5,6.9,21,0.00,,,0.00,WUHU216HW,2013-07-08 01:52:00,
2013-07-07 18:57:00,77.6,34.4,30.15,WSW,248,2.7,6.0,21,0.00,,,0.00,WUHU216HW,2013-07-08 01:57:00,
2013-07-07 19:02:00,77.4,34.3,30.16,West,270,2.2,4.9,21,0.00,,,0.00,WUHU216HW,2013-07-08 02:02:00,
2013-07-07 19:07:00,77.0,34.0,30.16,NW,315,4.3,4.9,21,0.00,,,0.00,WUHU216HW,2013-07-08 02:07:00,
2013-07-07 19:12:00,76.5,33.6,30.16,WSW,248,2.7,4.5,21,0.00,,,0.00,WUHU216HW,2013-07-08 02:12:00,
2013-07-07 19:17:00,76.0,33.1,30.16,WNW,293,2.2,4.5,21,0.00,,,0.00,WUHU216HW,2013-07-08 02:17:00,
2013-07-07 19:22:00,75.6,32.9,30.16,NW,315,2.0,4.9,21,0.00,,,0.00,WUHU216HW,2013-07-08 02:22:00,
2013-07-07 19:27:00,75.2,32.5,30.16,WSW,248,2.7,6.3,21,0.00,,,0.00,WUHU216HW,2013-07-08 02:27:00,
2013-07-07 19:32:00,74.9,32.2,30.16,West,270,4.7,6.3,21,0.00,,,0.00,WUHU216HW,2013-07-08 02:32:00,
2013-07-07 19:37:00,74.5,32.0,30.16,West,270,3.6,4.7,21,0.00,,,0.00,WUHU216HW,2013-07-08 02:37:00,
2013-07-07 19:42:00,74.2,31.7,30.16,WSW,248,2.0,4.0,21,0.00,,,0.00,WUHU216HW,2013-07-08 02:42:00,
2013-07-07 19:47:00,73.8,31.3,30.16,WNW,293,1.1,4.0,21,0.00,,,0.00,WUHU216HW,2013-07-08 02:47:00,
2013-07-07 19:52:00,73.3,30.9,30.16,WNW,293,2.5,2.9,21,0.00,,,0.00,WUHU216HW,2013-07-08 02:52:00,
2013-07-07 19:57:00,72.7,31.4,30.16,West,270,1.1,3.4,22,0.00,,,0.00,WUHU216HW,2013-07-08 02:57:00,
2013-07-07 20:02:00,72.4,31.2,30.16,WNW,293,0.9,3.4,22,0.00,,,0.00,WUHU216HW,2013-07-08 03:02:00,
2013-07-07 20:07:00,71.6,30.5,30.17,WNW,293,0.4,2.5,22,0.00,,,0.00,WUHU216HW,2013-07-08 03:07:00,
2013-07-07 20:12:00,70.9,29.9,30.17,NW,315,0.9,1.6,22,0.00,,,0.00,WUHU216HW,2013-07-08 03:12:00,
2013-07-07 20:17:00,70.6,29.6,30.17,West,270,1.8,2.2,22,0.00,,,0.00,WUHU216HW,2013-07-08 03:17:00,
2013-07-07 20:22:00,70.2,28.3,30.17,West,270,1.8,2.7,21,0.00,,,0.00,WUHU216HW,2013-07-08 03:22:00,
2013-07-07 20:27:00,69.8,29.0,30.17,WNW,293,2.5,2.7,22,0.00,,,0.00,WUHU216HW,2013-07-08 03:27:00,
2013-07-07 20:32:00,69.5,27.7,30.17,West,270,1.8,2.5,21,0.00,,,0.00,WUHU216HW,2013-07-08 03:32:00,
2013-07-07 20:37:00,69.1,27.5,30.18,West,270,1.8,2.2,21,0.00,,,0.00,WUHU216HW,2013-07-08 03:37:00,
2013-07-07 20:42:00,68.8,27.1,30.17,WSW,248,1.1,2.5,21,0.00,,,0.00,WUHU216HW,2013-07-08 03:42:00,
2013-07-07 20:47:00,68.4,26.8,30.18,West,270,1.1,2.5,21,0.00,,,0.00,WUHU216HW,2013-07-08 03:47:00,
2013-07-07 20:52:00,68.0,26.6,30.18,WNW,293,1.8,2.5,21,0.00,,,0.00,WUHU216HW,2013-07-08 03:52:00,
2013-07-07 20:57:00,67.7,26.2,30.18,West,270,2.5,2.9,21,0.00,,,0.00,WUHU216HW,2013-07-08 03:57:00,
2013-07-07 21:01:00,67.3,25.9,30.18,West,270,2.0,3.4,21,0.00,,,0.00,WUHU216HW,2013-07-08 04:01:00,
2013-07-07 21:06:00,67.0,25.6,30.18,WNW,293,2.9,3.6,21,0.00,,,0.00,WUHU216HW,2013-07-08 04:06:00,
2013-07-07 21:11:00,66.6,25.3,30.18,WSW,248,2.5,3.6,21,0.00,,,0.00,WUHU216HW,2013-07-08 04:11:00,
2013-07-07 21:16:00,66.2,24.9,30.18,West,270,2.9,3.4,21,0.00,,,0.00,WUHU216HW,2013-07-08 04:16:00,
2013-07-07 21:21:00,66.1,24.9,30.18,WSW,248,3.1,3.4,21,0.00,,,0.00,WUHU216HW,2013-07-08 04:21:00,
2013-07-07 21:26:00,65.9,24.7,30.19,West,270,3.4,4.5,21,0.00,,,0.00,WUHU216HW,2013-07-08 04:26:00,
2013-07-07 21:31:00,65.5,24.4,30.19,West,270,3.6,4.5,21,0.00,,,0.00,WUHU216HW,2013-07-08 04:31:00,
2013-07-07 21:36:00,65.5,24.4,30.19,WSW,248,2.5,4.7,21,0.00,,,0.00,WUHU216HW,2013-07-08 04:36:00,
2013-07-07 21:41:00,65.2,24.0,30.18,WSW,248,4.0,5.8,21,0.00,,,0.00,WUHU216HW,2013-07-08 04:41:00,
2013-07-07 21:46:00,65.2,24.0,30.19,West,270,3.4,5.8,21,0.00,,,0.00,WUHU216HW,2013-07-08 04:46:00,
2013-07-07 21:51:00,65.2,24.0,30.19,WSW,248,2.2,4.3,21,0.00,,,0.00,WUHU216HW,2013-07-08 04:51:00,
2013-07-07 21:56:00,65.2,21.5,30.19,West,270,1.8,3.6,19,0.00,,,0.00,WUHU216HW,2013-07-08 04:56:00,
2013-07-07 22:01:00,65.2,21.5,30.19,West,270,1.3,3.6,19,0.00,,,0.00,WUHU216HW,2013-07-08 05:01:00,
2013-07-07 22:06:00,65.2,21.5,30.19,West,270,3.1,3.6,19,0.00,,,0.00,WUHU216HW,2013-07-08 05:06:00,
2013-07-07 22:11:00,65.0,21.3,30.20,West,270,2.5,3.4,19,0.00,,,0.00,WUHU216HW,2013-07-08 05:11:00,
2013-07-07 22:16:00,64.8,22.8,30.20,WSW,248,2.0,3.4,20,0.00,,,0.00,WUHU216HW,2013-07-08 05:16:00,
2013-07-07 22:21:00,64.6,22.7,30.20,WSW,248,2.0,2.7,20,0.00,,,0.00,WUHU216HW,2013-07-08 05:21:00,
2013-07-07 22:26:00,64.4,22.5,30.20,WSW,248,1.6,3.1,20,0.00,,,0.00,WUHU216HW,2013-07-08 05:26:00,
2013-07-07 22:31:00,64.3,23.3,30.20,West,270,0.9,3.6,21,0.00,,,0.00,WUHU216HW,2013-07-08 05:31:00,
2013-07-07 22:36:00,64.1,23.2,30.20,West,270,0.4,3.6,21,0.00,,,0.00,WUHU216HW,2013-07-08 05:36:00,
2013-07-07 22:41:00,63.9,23.0,30.20,North,0,0.2,2.0,21,0.00,,,0.00,WUHU216HW,2013-07-08 05:41:00,
2013-07-07 22:46:00,63.7,23.0,30.20,NNE,23,1.1,2.0,21,0.00,,,0.00,WUHU216HW,2013-07-08 05:46:00,
2013-07-07 22:51:00,63.5,22.8,30.20,North,0,0.4,2.9,21,0.00,,,0.00,WUHU216HW,2013-07-08 05:51:00,
2013-07-07 22:56:00,63.4,22.6,30.20,NNE,23,1.1,2.9,21,0.00,,,0.00,WUHU216HW,2013-07-08 05:56:00,
2013-07-07 23:01:00,63.0,22.3,30.20,North,0,1.1,2.5,21,0.00,,,0.00,WUHU216HW,2013-07-08 06:01:00,
2013-07-07 23:06:00,62.6,23.1,30.20,WNW,293,1.8,2.0,22,0.00,,,0.00,WUHU216HW,2013-07-08 06:06:00,
2013-07-07 23:11:00,62.3,22.7,30.20,West,270,1.1,3.1,22,0.00,,,0.00,WUHU216HW,2013-07-08 06:11:00,
2013-07-07 23:16:00,61.9,22.4,30.20,NW,315,2.5,3.1,22,0.00,,,0.00,WUHU216HW,2013-07-08 06:16:00,
2013-07-07 23:21:00,61.9,23.4,30.20,NNW,338,1.8,4.5,23,0.00,,,0.00,WUHU216HW,2013-07-08 06:21:00,
2013-07-07 23:26:00,62.3,23.7,30.20,SW,225,2.0,4.5,23,0.00,,,0.00,WUHU216HW,2013-07-08 06:26:00,
2013-07-07 23:31:00,62.1,23.5,30.20,West,270,0.0,2.2,23,0.00,,,0.00,WUHU216HW,2013-07-08 06:31:00,
2013-07-07 23:36:00,61.6,22.2,30.20,WSW,248,0.9,2.9,22,0.00,,,0.00,WUHU216HW,2013-07-08 06:36:00,
2013-07-07 23:41:00,61.2,21.8,30.20,WSW,248,0.4,2.9,22,0.00,,,0.00,WUHU216HW,2013-07-08 06:41:00,
2013-07-07 23:46:00,60.5,21.3,30.20,West,270,1.8,2.7,22,0.00,,,0.00,WUHU216HW,2013-07-08 06:46:00,
2013-07-07 23:51:00,59.9,21.7,30.20,WNW,293,1.3,2.0,23,0.00,,,0.00,WUHU216HW,2013-07-08 06:51:00,
2013-07-07 23:56:00,59.4,21.3,30.20,West,270,1.1,2.0,23,0.00,,,0.00,WUHU216HW,2013-07-08 06:56:00,